sat.trackr.live / text

‹ back to catalog

STARLINK-3265

NORAD 50180 · 2021-125AA

PAYLOAD ACTIVE UNKNOWN

§ Identity

Operator
Country
US
Launch date
2021-12-18
Launch site
AFWTR
Launch vehicle
Mass (kg)
RCS (m²)

Purposes: comms

External: N2YO · Heavens-Above · Gunter

§ Orbital elements

Epoch: 2026-05-25T01:15:55.694880Z

Period
95.44 min
Inclination
53.2140°
Eccentricity
0.0001752
Mean motion
15.08827793 rev/d
Perigee alt
538.6 km
Apogee alt
541.0 km
Semi-major
6,917.9 km
B*
1.9728e-4
RAAN
266.3188°
Arg perigee
91.3177°
Mean anomaly
268.8016°
Rev number
24,817

§ Raw data

STARLINK-32651 50180U 21125AA  26145.05272795  .00002852  00000+0  19728-3 0  99962 50180  53.2140 266.3188 0001752  91.3177 268.8016 15.08827793248171

JSON: /api/v1/satellites/50180 · /tle

For live sub-satellite position, see the globe view (requires WebGL).

§ Visibility from observer

Set your observer location to see the next 7 days of passes ≥ 10°. The values pass through the URL so the page stays shareable.

No JS? Fill the form by hand. The geolocation button needs JavaScript.